Погода в Фейсалабаде

Пакистан     31°27′42″N   73°04′22″E
темп.,
°C
ветер,
м/с
пор.,
м/с
влажн.,
%
обл.,
%
осадки,
мм/ч
давл.,
гПа
погр.,
м
13 апреля, вт
вт1323:00+27с2322100 0.0 101272
02:00+26ссв2226100 0.0 101246
05:00+26всв482864 0.0 1010177
08:00+29юв232277 0.0 1012322
11:00+36зюз221411 0.0 10111423
14:00+38з361133 0.0 10083236
17:00+38зсз3699 0.0 10053785
20:00+31сз4101793 0.0 1008231
14 апреля, ср
ср1423:00+29ссз232699 0.0 100965
02:00+28всв3529100 0.0 1008118
05:00+25ссв3832100 0.0 1007176
08:00+29ссв2326100 0.0 1011373
11:00+36вюв221597 0.0 10091191
14:00+39зюз251035 0.0 10063447
17:00+39з3585 0.0 10034714
20:00+32ссз3412100 0.0 100457
15 апреля, чт
чт1523:00+30св3516100 0.0 1006106
02:00+27св462029 0.0 1005118
05:00+25св6143050 0.0 1007356
08:00+29св61127100 0.0 1008531
11:00+36ссв441697 0.0 10081904
14:00+37с571478 0.0 10043409
17:00+37юв1410100 0.0 10023743
20:00+30с6122395 0.0 1005407
16 апреля, пт
пт1623:00+26ссв71435100 0.0 1006483
02:00+24с512407 0.0 1005369
05:00+23с4942100 0.0 1005254
08:00+27с5833100 0.0 1007434
11:00+34св331892 0.0 10061195
14:00+37з231399 0.0 10033025
17:00+29з91332100 0.0 1004786
20:00+26с243898 0.1 1004105
17 апреля, сб
сб1723:00+21з485974 0.6 1006238
02:00+20всв126623 1.6 100693
05:00+21зсз236388 1.8 1006248
08:00+22ссз236195 0.3 1009441
11:00+25юз344843 0.3 1009956
14:00+29зсз893557 0.0 10072486
17:00+27ссз764521 0.0 10081240
20:00+21ссв57654 0.0 1011387